This is the latest recevied weather packets stored in our database for station/object JQ1YUX-13. If no packets are shown the sender has not sent any weather packets the latest 10 day(s).
| Time | Temp. | Humidity | Pressure | Rain* | Wind** | Luminosity | Snow |
|---|---|---|---|---|---|---|---|
| 1777700585 | 28.89° C | 42% | 1005.3 hPa | 0 mm | - | - | - |
| 1777699685 | 28.33° C | 34% | 1005.2 hPa | 0 mm | - | - | - |
| 1777698784 | 28.33° C | 36% | 1005 hPa | 0 mm | - | - | - |
| 1777697884 | 27.78° C | 34% | 1005 hPa | 0 mm | - | - | - |
| 1777696985 | 27.78° C | 34% | 1004.9 hPa | 0 mm | - | - | - |
| 1777696085 | 27.78° C | 41% | 1004.7 hPa | 0 mm | - | - | - |
| 1777695184 | 27.78° C | 35% | 1004.6 hPa | 0 mm | - | - | - |
| 1777694284 | 27.78° C | 35% | 1004.6 hPa | 0 mm | - | - | - |
| 1777693385 | 27.78° C | 34% | 1004.5 hPa | 0 mm | - | - | - |
| 1777692485 | 28.33° C | 34% | 1004.2 hPa | 0 mm | - | - | - |
| 1777691584 | 27.78° C | 39% | 1004 hPa | 0 mm | - | - | - |
| 1777690684 | 27.22° C | 45% | 1003.9 hPa | 0 mm | - | - | - |
| 1777689785 | 26.67° C | 46% | 1003.8 hPa | 0 mm | - | - | - |
| 1777688885 | 26.67° C | 45% | 1003.7 hPa | 0 mm | - | - | - |
| 1777687984 | 26.11° C | 45% | 1003.7 hPa | 0 mm | - | - | - |
| 1777687085 | 26.11° C | 48% | 1003.5 hPa | 0 mm | - | - | - |
| 1777686184 | 25° C | 48% | 1003.3 hPa | 0 mm | - | - | - |
| 1777685285 | 25° C | 49% | 1003.3 hPa | 0 mm | - | - | - |
| 1777684386 | 25° C | 50% | 1003.4 hPa | 0 mm | - | - | - |
| 1777683485 | 24.44° C | 55% | 1003.4 hPa | 0 mm | - | - | - |
| 1777682584 | 23.89° C | 55% | 1003.2 hPa | 0 mm | - | - | - |
| 1777681684 | 22.78° C | 58% | 1003.1 hPa | 0 mm | - | - | - |
| 1777680785 | 22.22° C | 57% | 1003 hPa | 0 mm | - | - | - |
| 1777679885 | 21.67° C | 59% | 1003.2 hPa | 0 mm | - | - | - |
| 1777678986 | 21.11° C | 61% | 1003.1 hPa | 0 mm | - | - | - |
* Rain latest hour (hover to see other rain measurements)
** Current wind speed in m/s (hover to see current wind gust speed)